Location: Unspecified
(43.8044°N, 11.0278°E)
Time: 03:55:50
(UTC+02:00)

CZ-3 Stage 3 - Visible Passes

Search period start: 22 August 2014 00:00
Search period end: 01 September 2014 00:00
Orbit: 413 x 34837 km, 30.7° (Epoch: 20 August)

Date Brightness Start Highest point End Pass type
(mag) Time Alt. Az. Time Alt. Az. Time Alt. Az.
22 Aug 9.2 03:03:53 10° SE 04:26:53 15° SE 05:03:08 10° ESE visible
24 Aug 8.1 02:58:08 10° S 08:39:47 37° SSE 08:56:45 10° ESE visible
25 Aug 9.1 02:43:01 10° SE 04:26:23 17° SE 05:05:23 10° ESE visible
27 Aug 8.0 02:45:39 10° S 08:38:42 39° SSE 08:54:58 10° ESE visible
28 Aug 9.0 02:23:26 10° SE 04:25:47 19° SE 05:06:28 10° ESE visible
30 Aug 7.9 02:33:40 10° S 08:37:27 40° S 08:53:04 10° ESE visible
31 Aug 8.9 02:04:43 10° SE 04:25:06 21° SE 05:06:46 10° ESE visible
